Hourly Data Report for September 16, 2020

SHEARWATER RCS
NOVA SCOTIA
Current Station Operator: ECCC - MSC

44°37'47.000" N
63°30'48.000" W
24.00 m
8205092
71264
AAW

Download Data

Hourly Data (September 2020)
Hourly Data Report for September 16, 2020
TIME Temp Definition
°C
Dew Point Definition
°C
Rel Hum Definition
%
Wind Dir Definition
10's deg

Wind Spd Definition
km/h
Visibility Definition
km
Stn Press Definition
kPa
Hmdx Definition


Wind Chill Definition


Weather Definition


00:00 8.8 4.7 76 33 9   102.10     LegendNANA
01:00 7.6 4.4 81 30 2   102.10     LegendNANA
02:00 8.0 4.9 81 31 7   102.09     LegendNANA
03:00 6.8 4.6 86 34 1   102.05     LegendNANA
04:00 6.3 4.6 89 31 5   102.07     LegendNANA
05:00 5.9 4.1 88   0   102.07     LegendNANA
06:00 6.3 4.6 89   0   102.13     LegendNANA
07:00 8.3 7.1 92 0 1   102.15     LegendNANA
08:00 12.2 9.1 82 20 1   102.16     LegendNANA
09:00 14.8 8.4 65 20 12   102.17     LegendNANA
10:00 15.6 6.8 56 19 17   102.16     LegendNANA
11:00 16.8 8.8 59 20 18   102.14     LegendNANA
12:00 16.9 7.2 53 20 22   102.08     LegendNANA
13:00 17.3 7.4 52 19 25   102.01     LegendNANA
14:00 17.5 5.6 46 21 25   101.98     LegendNANA
15:00 17.0 4.5 43 20 27   101.91     LegendNANA
16:00 16.7 4.2 43 20 26   101.89     LegendNANA
17:00 16.0 5.7 51 20 25   101.86     LegendNANA
18:00 15.1 7.1 59 20 21   101.81     LegendNANA
19:00 14.9 8.1 64 20 23   101.80     LegendNANA
20:00 14.7 8.2 65 20 17   101.79     LegendNANA
21:00 14.8 8.4 65 20 16   101.76     LegendNANA
22:00 15.2 6.8 57 20 15   101.75     LegendNANA
23:00 15.8 8.5 62 21 21   101.72     LegendNANA

Notes on Data Quality.

Legend

  • E = Estimated
  • M = Missing
  • NA = Not Available*
  • [empty] = Indicates an unobserved value
Date modified: